Location: ??????
(42.0089°N, 44.3281°E)
Time: 07:03:14
(UTC+00:00)

Cosmos 839 Rocket - Visible Passes

Search period start: 21 May 2022 00:00
Search period end: 31 May 2022 00:00
Orbit: 969 x 2084 km, 65.9° (Epoch: 20 May)

Date Brightness Start Highest point End Pass type
(mag) Time Alt. Az. Time Alt. Az. Time Alt. Az.
21 May 4.9 00:13:31 10° NW 00:19:19 33° WSW 00:26:08 10° S visible
21 May 5.7 21:31:40 10° NNW 21:37:17 32° NE 21:43:37 10° ESE visible
21 May 4.4 23:31:12 10° NW 23:37:29 52° WSW 23:45:01 10° S visible
22 May 6.2 20:50:06 10° N 20:54:57 22° NE 21:00:16 10° E visible
22 May 4.2 22:49:09 10° NW 22:55:36 80° WSW 23:03:23 10° SSE visible
23 May 5.9 00:52:11 10° W 00:54:54 12° WSW 00:57:48 10° SW visible
23 May 6.5 20:08:42 10° N 20:12:27 16° NNE 20:16:25 10° ENE visible
23 May 4.5 22:07:15 10° NNW 22:13:39 69° ENE 22:20:35 13° SE visible
24 May 5.5 00:08:19 10° WNW 00:13:15 22° WSW 00:17:01 15° SW visible
24 May 6.7 19:27:40 10° N 19:29:45 12° NNE 19:31:54 10° NE visible
24 May 5.1 21:25:29 10° NNW 21:31:36 46° NE 21:38:08 12° ESE visible
24 May 4.9 23:25:37 10° NW 23:31:29 34° WSW 23:34:38 25° SSW visible
25 May 5.6 20:43:48 10° NNW 20:49:26 31° NE 20:55:48 10° ESE visible
25 May 4.4 22:43:20 10° NW 22:49:39 54° WSW 22:52:41 34° S visible
26 May 6.1 20:02:15 10° N 20:07:06 22° NE 20:12:24 10° E visible
26 May 4.2 22:01:16 10° NNW 22:07:46 82° WSW 22:10:59 38° SSE visible
27 May 5.9 00:04:06 10° W 00:07:06 13° WSW 00:07:31 13° WSW visible
27 May 6.4 19:20:51 10° N 19:24:35 16° NNE 19:28:32 10° ENE visible
27 May 4.5 21:19:23 10° NNW 21:25:48 68° ENE 21:29:28 32° SE visible
27 May 5.5 23:20:24 10° WNW 23:25:26 22° WSW 23:26:01 22° WSW visible
28 May 6.6 18:39:50 10° N 18:41:53 11° NNE 18:43:59 10° NE visible
28 May 5.0 20:37:37 10° NNW 20:43:45 45° NE 20:48:04 23° ESE visible
28 May 5.0 22:37:43 10° NW 22:43:40 35° WSW 22:44:37 34° SW visible
29 May 5.6 19:55:57 10° NNW 20:01:34 31° NE 20:06:46 14° ESE visible
29 May 4.5 21:55:27 10° NW 22:01:50 55° WSW 22:03:19 47° SSW visible
30 May 6.0 19:14:24 10° N 19:19:14 22° NE 19:24:33 10° E visible
30 May 4.2 21:13:24 10° NNW 21:19:56 83° WSW 21:22:06 50° SSE visible
30 May 6.0 23:16:03 10° WNW 23:18:41 13° W 23:18:41 13° W visible
